Time,TemperatureF,DewpointF,PressureIn,WindDirection,WindDirectionDegrees,WindSpeedMPH,WindSpeedGustMPH,Humidity,HourlyPrecipIn,Conditions,Clouds,dailyrainin,SoftwareType,DateUTC
2013-04-18 00:02:00,43.0,27.1,30.28,WNW,292,0.0,-999.0,53,-99.99,,,0.00,Acu-Link.com,2013-04-18 04:02:00,
2013-04-18 00:17:00,42.4,28.3,30.28,South,180,1.1,-999.0,57,-99.99,,,0.00,Acu-Link.com,2013-04-18 04:17:00,
2013-04-18 00:32:00,42.1,28.4,30.30,West,270,1.7,-999.0,58,-99.99,,,0.00,Acu-Link.com,2013-04-18 04:32:00,
2013-04-18 00:47:00,41.5,30.6,30.30,West,270,0.0,-999.0,65,-99.99,,,0.00,Acu-Link.com,2013-04-18 04:47:00,
2013-04-18 01:03:00,41.0,29.8,30.31,NW,315,0.0,-999.0,64,-99.99,,,0.00,Acu-Link.com,2013-04-18 05:03:00,
2013-04-18 01:18:00,39.7,28.9,30.31,West,270,0.0,-999.0,65,-99.99,,,0.00,Acu-Link.com,2013-04-18 05:18:00,
2013-04-18 01:33:00,40.8,28.8,30.31,NE,45,0.0,-999.0,62,-99.99,,,0.00,Acu-Link.com,2013-04-18 05:33:00,
2013-04-18 01:48:00,39.4,29.0,30.31,West,270,2.2,-999.0,66,-99.99,,,0.00,Acu-Link.com,2013-04-18 05:48:00,
2013-04-18 02:03:00,39.4,28.6,30.30,NNW,337,0.0,-999.0,65,-99.99,,,0.00,Acu-Link.com,2013-04-18 06:03:00,
2013-04-18 02:19:00,38.8,29.2,30.30,NNE,22,0.0,-999.0,68,-99.99,,,0.00,Acu-Link.com,2013-04-18 06:19:00,
2013-04-18 02:34:00,38.5,29.9,30.30,NE,45,1.7,-999.0,71,-99.99,,,0.00,Acu-Link.com,2013-04-18 06:34:00,
2013-04-18 02:49:00,37.4,29.6,30.31,WNW,292,1.7,-999.0,73,-99.99,,,0.00,Acu-Link.com,2013-04-18 06:49:00,
2013-04-18 03:04:00,37.6,29.1,30.31,NW,315,0.0,-999.0,71,-99.99,,,0.00,Acu-Link.com,2013-04-18 07:04:00,
2013-04-18 03:20:00,37.9,28.7,30.32,NW,315,1.1,-999.0,69,-99.99,,,0.00,Acu-Link.com,2013-04-18 07:20:00,
2013-04-18 03:35:00,38.3,28.7,30.33,NE,45,0.0,-999.0,68,-99.99,,,0.00,Acu-Link.com,2013-04-18 07:35:00,
2013-04-18 03:50:00,37.8,28.6,30.33,ENE,67,0.0,-999.0,69,-99.99,,,0.00,Acu-Link.com,2013-04-18 07:50:00,
2013-04-18 04:37:00,37.6,28.4,30.33,ESE,112,0.0,-999.0,69,-99.99,,,0.00,Acu-Link.com,2013-04-18 08:37:00,
2013-04-18 04:53:00,37.6,28.7,30.34,ESE,112,0.0,-999.0,70,-99.99,,,0.00,Acu-Link.com,2013-04-18 08:53:00,
2013-04-18 05:08:00,36.9,29.1,30.36,ESE,112,1.1,-999.0,73,-99.99,,,0.00,Acu-Link.com,2013-04-18 09:08:00,
2013-04-18 05:23:00,37.0,28.8,30.35,East,90,1.1,-999.0,72,-99.99,,,0.00,Acu-Link.com,2013-04-18 09:23:00,
2013-04-18 05:38:00,36.9,28.7,30.36,NNW,337,0.0,-999.0,72,-99.99,,,0.00,Acu-Link.com,2013-04-18 09:38:00,
2013-04-18 05:53:00,36.5,29.0,30.35,NNE,22,0.0,-999.0,74,-99.99,,,0.00,Acu-Link.com,2013-04-18 09:53:00,
2013-04-18 06:08:00,35.8,29.0,30.34,ESE,112,0.0,-999.0,76,-99.99,,,0.00,Acu-Link.com,2013-04-18 10:08:00,
2013-04-18 06:24:00,35.6,29.1,30.34,WNW,292,1.7,-999.0,77,-99.99,,,0.00,Acu-Link.com,2013-04-18 10:24:00,
2013-04-18 06:39:00,37.6,29.7,30.36,NW,315,1.1,-999.0,73,-99.99,,,0.00,Acu-Link.com,2013-04-18 10:39:00,
2013-04-18 06:54:00,42.1,31.2,30.35,ESE,112,2.2,-999.0,65,-99.99,,,0.00,Acu-Link.com,2013-04-18 10:54:00,
2013-04-18 07:09:00,45.9,31.5,30.37,NE,45,1.7,-999.0,57,-99.99,,,0.00,Acu-Link.com,2013-04-18 11:09:00,
2013-04-18 07:24:00,47.5,31.7,30.36,ESE,112,3.2,-999.0,54,-99.99,,,0.00,Acu-Link.com,2013-04-18 11:24:00,
2013-04-18 07:40:00,49.3,32.9,30.37,NE,45,3.2,-999.0,53,-99.99,,,0.00,Acu-Link.com,2013-04-18 11:40:00,
2013-04-18 07:55:00,49.8,32.9,30.38,ESE,112,4.2,-999.0,52,-99.99,,,0.00,Acu-Link.com,2013-04-18 11:55:00,
2013-04-18 08:10:00,51.6,32.6,30.37,East,90,2.7,-999.0,48,-99.99,,,0.00,Acu-Link.com,2013-04-18 12:10:00,
2013-04-18 08:25:00,49.8,32.4,30.38,East,90,6.8,-999.0,51,-99.99,,,0.00,Acu-Link.com,2013-04-18 12:25:00,
2013-04-18 08:40:00,51.8,31.7,30.37,ESE,112,7.3,-999.0,46,-99.99,,,0.00,Acu-Link.com,2013-04-18 12:40:00,
2013-04-18 08:56:00,51.6,30.4,30.36,ESE,112,3.7,-999.0,44,-99.99,,,0.00,Acu-Link.com,2013-04-18 12:56:00,
2013-04-18 09:11:00,52.7,31.4,30.35,ENE,67,7.3,-999.0,44,-99.99,,,0.00,Acu-Link.com,2013-04-18 13:11:00,
2013-04-18 09:26:00,53.4,29.7,30.36,ESE,112,5.3,-999.0,40,-99.99,,,0.00,Acu-Link.com,2013-04-18 13:26:00,
2013-04-18 09:41:00,54.9,30.4,30.35,ESE,112,9.4,-999.0,39,-99.99,,,0.00,Acu-Link.com,2013-04-18 13:41:00,
2013-04-18 09:57:00,56.1,28.8,30.36,NNE,22,4.7,-999.0,35,-99.99,,,0.00,Acu-Link.com,2013-04-18 13:57:00,
2013-04-18 10:12:00,55.9,30.0,30.35,ESE,112,9.4,-999.0,37,-99.99,,,0.00,Acu-Link.com,2013-04-18 14:12:00,
2013-04-18 10:27:00,55.9,28.7,30.36,NE,45,9.4,-999.0,35,-99.99,,,0.00,Acu-Link.com,2013-04-18 14:27:00,
2013-04-18 10:42:00,55.8,29.3,30.35,South,180,4.7,-999.0,36,-99.99,,,0.00,Acu-Link.com,2013-04-18 14:42:00,
2013-04-18 10:57:00,56.7,30.7,30.34,NE,45,4.2,-999.0,37,-99.99,,,0.00,Acu-Link.com,2013-04-18 14:57:00,
2013-04-18 11:13:00,58.3,32.1,30.33,ENE,67,4.7,-999.0,37,-99.99,,,0.00,Acu-Link.com,2013-04-18 15:13:00,
2013-04-18 11:28:00,57.2,32.5,30.33,ESE,112,7.3,-999.0,39,-99.99,,,0.00,Acu-Link.com,2013-04-18 15:28:00,
2013-04-18 11:58:00,59.4,33.8,30.32,ESE,112,6.8,-999.0,38,-99.99,,,0.00,Acu-Link.com,2013-04-18 15:58:00,
2013-04-18 12:13:00,58.5,33.6,30.31,SSE,157,6.3,-999.0,39,-99.99,,,0.00,Acu-Link.com,2013-04-18 16:13:00,
2013-04-18 12:29:00,59.2,34.3,30.30,ESE,112,6.3,-999.0,39,-99.99,,,0.00,Acu-Link.com,2013-04-18 16:29:00,
2013-04-18 12:44:00,59.7,34.7,30.28,North,0,6.3,-999.0,39,-99.99,,,0.00,Acu-Link.com,2013-04-18 16:44:00,
2013-04-18 12:59:00,60.4,34.0,30.27,ESE,112,4.7,-999.0,37,-99.99,,,0.00,Acu-Link.com,2013-04-18 16:59:00,
2013-04-18 13:14:00,61.7,35.2,30.26,SSE,157,8.3,-999.0,37,-99.99,,,0.00,Acu-Link.com,2013-04-18 17:14:00,
2013-04-18 13:29:00,61.2,35.4,30.25,South,180,5.8,-999.0,38,-99.99,,,0.00,Acu-Link.com,2013-04-18 17:29:00,
2013-04-18 13:45:00,61.7,35.8,30.24,ENE,67,9.4,-999.0,38,-99.99,,,0.00,Acu-Link.com,2013-04-18 17:45:00,
2013-04-18 14:00:00,60.8,34.4,30.24,NNE,22,13.0,-999.0,37,-99.99,,,0.00,Acu-Link.com,2013-04-18 18:00:00,
2013-04-18 14:15:00,62.8,34.7,30.23,NE,45,11.9,-999.0,35,-99.99,,,0.00,Acu-Link.com,2013-04-18 18:15:00,
2013-04-18 14:30:00,61.2,34.7,30.23,ESE,112,5.8,-999.0,37,-99.99,,,0.00,Acu-Link.com,2013-04-18 18:30:00,
2013-04-18 14:46:00,62.6,35.3,30.22,South,180,3.7,-999.0,36,-99.99,,,0.00,Acu-Link.com,2013-04-18 18:46:00,
2013-04-18 15:01:00,61.9,34.7,30.21,South,180,9.9,-999.0,36,-99.99,,,0.00,Acu-Link.com,2013-04-18 19:01:00,
2013-04-18 15:46:00,63.7,33.3,30.19,West,270,4.2,-999.0,32,-99.99,,,0.00,Acu-Link.com,2013-04-18 19:46:00,
2013-04-18 16:02:00,62.1,32.7,30.18,WNW,292,4.7,-999.0,33,-99.99,,,0.00,Acu-Link.com,2013-04-18 20:02:00,
2013-04-18 16:17:00,63.1,33.5,30.17,West,270,4.2,-999.0,33,-99.99,,,0.00,Acu-Link.com,2013-04-18 20:17:00,
2013-04-18 16:32:00,62.2,33.5,30.17,SSW,202,5.3,-999.0,34,-99.99,,,0.00,Acu-Link.com,2013-04-18 20:32:00,
2013-04-18 16:47:00,60.1,31.6,30.17,SSW,202,2.2,-999.0,34,-99.99,,,0.00,Acu-Link.com,2013-04-18 20:47:00,
2013-04-18 17:02:00,59.7,32.0,30.17,SSE,157,3.7,-999.0,35,-99.99,,,0.00,Acu-Link.com,2013-04-18 21:02:00,
2013-04-18 17:18:00,59.2,31.6,30.18,WNW,292,4.2,-999.0,35,-99.99,,,0.00,Acu-Link.com,2013-04-18 21:18:00,
2013-04-18 17:33:00,58.6,31.0,30.17,NNW,337,1.7,-999.0,35,-99.99,,,0.00,Acu-Link.com,2013-04-18 21:33:00,
2013-04-18 17:48:00,57.7,30.2,30.17,SSW,202,3.7,-999.0,35,-99.99,,,0.00,Acu-Link.com,2013-04-18 21:48:00,
2013-04-18 18:03:00,57.2,30.5,30.17,WSW,247,7.3,-999.0,36,-99.99,,,0.00,Acu-Link.com,2013-04-18 22:03:00,
2013-04-18 18:19:00,56.8,30.1,30.16,ENE,67,4.2,-999.0,36,-99.99,,,0.00,Acu-Link.com,2013-04-18 22:19:00,
2013-04-18 18:34:00,56.3,29.0,30.15,SSW,202,3.7,-999.0,35,-99.99,,,0.00,Acu-Link.com,2013-04-18 22:34:00,
2013-04-18 18:49:00,55.9,28.7,30.14,SE,135,4.7,-999.0,35,-99.99,,,0.00,Acu-Link.com,2013-04-18 22:49:00,
2013-04-18 19:04:00,55.4,28.2,30.14,North,0,5.3,-999.0,35,-99.99,,,0.00,Acu-Link.com,2013-04-18 23:04:00,
2013-04-18 19:19:00,54.9,28.5,30.13,SSW,202,4.7,-999.0,36,-99.99,,,0.00,Acu-Link.com,2013-04-18 23:19:00,
2013-04-18 19:35:00,54.7,28.9,30.12,ESE,112,2.7,-999.0,37,-99.99,,,0.00,Acu-Link.com,2013-04-18 23:35:00,
2013-04-18 19:50:00,54.5,29.4,30.12,WSW,247,2.2,-999.0,38,-99.99,,,0.00,Acu-Link.com,2013-04-18 23:50:00,
2013-04-18 20:05:00,54.3,29.2,30.11,South,180,3.2,-999.0,38,-99.99,,,0.00,Acu-Link.com,2013-04-19 00:05:00,
2013-04-18 20:20:00,54.1,30.3,30.11,ESE,112,4.2,-999.0,40,-99.99,,,0.00,Acu-Link.com,2013-04-19 00:20:00,
2013-04-18 20:35:00,54.0,32.6,30.11,South,180,4.7,-999.0,44,-99.99,,,0.00,Acu-Link.com,2013-04-19 00:35:00,
2013-04-18 20:51:00,53.1,36.4,30.11,NW,315,4.2,-999.0,53,-99.99,,,0.00,Acu-Link.com,2013-04-19 00:51:00,
2013-04-18 21:06:00,52.7,39.2,30.10,SSE,157,4.7,-999.0,60,-99.99,,,0.00,Acu-Link.com,2013-04-19 01:06:00,
2013-04-18 21:21:00,52.0,40.6,30.10,ENE,67,5.3,-999.0,65,-99.99,,,0.00,Acu-Link.com,2013-04-19 01:21:00,
2013-04-18 21:36:00,51.3,40.7,30.11,South,180,3.7,-999.0,67,-99.99,,,0.00,Acu-Link.com,2013-04-19 01:36:00,
2013-04-18 21:51:00,50.7,40.9,30.10,SSE,157,4.2,-999.0,69,-99.99,,,0.00,Acu-Link.com,2013-04-19 01:51:00,
2013-04-18 22:07:00,50.2,40.8,30.10,WSW,247,1.7,-999.0,70,-99.99,,,0.00,Acu-Link.com,2013-04-19 02:07:00,
2013-04-18 22:22:00,49.8,41.1,30.08,ESE,112,2.2,-999.0,72,-99.99,,,0.00,Acu-Link.com,2013-04-19 02:22:00,
2013-04-18 22:37:00,50.4,41.7,30.07,SE,135,2.2,-999.0,72,-99.99,,,0.00,Acu-Link.com,2013-04-19 02:37:00,
2013-04-18 22:52:00,50.5,41.5,30.06,NE,45,4.2,-999.0,71,-99.99,,,0.00,Acu-Link.com,2013-04-19 02:52:00,
2013-04-18 23:08:00,50.7,41.6,30.07,South,180,2.7,-999.0,71,-99.99,,,0.00,Acu-Link.com,2013-04-19 03:08:00,
2013-04-18 23:23:00,50.9,41.8,30.07,SE,135,3.2,-999.0,71,-99.99,,,0.00,Acu-Link.com,2013-04-19 03:23:00,
2013-04-18 23:38:00,51.1,42.0,30.07,WSW,247,2.2,-999.0,71,-99.99,,,0.00,Acu-Link.com,2013-04-19 03:38:00,
2013-04-18 23:53:00,51.3,42.6,30.07,West,270,2.7,-999.0,72,-99.99,,,0.00,Acu-Link.com,2013-04-19 03:53:00,